User: anonymous   Login
Location: NJAA Observatory
(40.6819°N, 74.8979°W)
Time: 10:32:08
(UTC-04:00)
Language:

Landsat 5 - Orbit

View from above orbital plane
View from above orbital plane
View from above satellite
View from above satellite

Ground track
Ground track

The orbit data is extracted from the following two-line orbital elements,

1 14780U 84021A   16146.43538999  .00000346  00000-0  38415-4 0  9991
2 14780  98.0234 245.4435 0091678   6.7856 353.4579 14.91135275718086
Epoch (UTC): 25 May 2016 10:26:57
Eccentricity: 0.0091678
inclination: 98.0234°
perigee height: 530 km
apogee height: 658 km
right ascension of ascending node: 245.4435°
argument of perigee: 6.7856°
revolutions per day: 14.91135275
mean anomaly at epoch: 353.4579°
orbit number at epoch: 71808

The dashed part of the orbit path shows where the satellite is in the earth's shadow,  

DLR